Regional Weather Roundup
Issued by NWS Columbia, SC

Home | Current Version | Previous Version | Text Only | Print | Product List | Glossary On
Versions: 1 2 3 4 5 6 7 8 9 10 11 12 13 14 15 16 17 18 19 20 21 22 23 24 25 26 27 28 29 30 31 32 33 34 35 36 37 38 39 40 41 42 43 44 45 46 47 48 49 50
000
ASUS42 KCAE 290110
RWRCAE
REGIONAL WEATHER ROUNDUP
NATIONAL WEATHER SERVICE COLUMBIA SC
900 PM EDT THU AUG 28 2014

NOTE: "FAIR" INDICATES FEW OR NO CLOUDS BELOW 12,000 FEET WITH NO
SIGNIFICANT WEATHER AND/OR OBSTRUCTIONS TO VISIBILITY.

NOT ALL STATIONS ARE QUALITY CONTROLLED BY THE NATIONAL
WEATHER SERVICE. USE DATA WITH CAUTION...ESPECIALLY
DEWPOINT OBSERVATIONS.

SCZ001>056-GAZ040-063>065-077-290200-
...UPSTATE SOUTH CAROLINA...

CITY           SKY/WX    TMP DP  RH WIND       PRES   REMARKS
ANDERSON       CLEAR     80  62  54 CALM      30.00R
LIBERTY        FAIR      74  32  21 MISG      30.02R
SPARTANBURG    FAIR      79  72  78 CALM      30.01R
CLEMSON        CLEAR     84  63  49 CALM      30.02R
GREENVILLE     CLEAR     85  63  47 CALM      30.03R
GREENWOOD      CLEAR     79  61  53 CALM      30.01R
GREER          CLEAR     81  63  54 CALM      30.01R
ROCK HILL      CLEAR     76  70  82 CALM      30.01R
LAURENS        FAIR      77  59  53 CALM      30.01R


...CENTRAL SOUTH CAROLINA...

CITY           SKY/WX    TMP DP  RH WIND       PRES   REMARKS
COLUMBIA APT   PTCLDY    82  62  50 S6        29.98R
COLUMBIA OWENS CLEAR     84  61  45 CALM      29.99R
DARLINGTON     CLEAR     82  63  51 S7        29.99R
FLORENCE       CLEAR     81  65  58 S6        29.99R
MCENTIRE ANGB  CLEAR     76  63  63 SE5       29.99R
ORANGEBURG     CLEAR     76  63  64 CALM      30.00R
SUMTER SHAW    CLEAR     82  60  47 S5        29.98R
AIKEN          FAIR      79  59  50 SE5       30.03R
BARNWELL       FAIR      81  59  47 S6        29.99R
MANNING        FAIR      75  68  78 CALM      30.00R
CAMDEN         FAIR      81  64  57 CALM      30.00R
LANCASTER      FAIR      82  66  57 CALM      30.00R
WINNSBORO      FAIR      82  63  51 SE3       30.00R


...EASTERN AND COASTAL SOUTH CAROLINA...

CITY           SKY/WX    TMP DP  RH WIND       PRES   REMARKS
MYRTLE BEACH   CLEAR     81  66  61 SW12      30.00R
N MYRTLE BCH   CLEAR     81  67  62 SW10      30.00R
CONWAY         FAIR      75  68  78 CALM      30.01R
MARION         FAIR      79  66  65 S5        29.99R
FLORENCE       CLEAR     81  65  58 S6        29.99R
DARLINGTON     CLEAR     82  63  51 S7        29.99R
CHARLESTON APT CLEAR     77  66  68 S5        30.01R
MOUNT PLEASANT FAIR      75  70  83 CALM      30.01R
WALTERBORO     CLEAR     77  61  57 CALM      30.01R
BEAUFORT       CLEAR     79  69  71 SW3       30.00R


...EASTERN GEORGIA...

CITY           SKY/WX    TMP DP  RH WIND       PRES   REMARKS
AUGUSTA BUSH F CLEAR     74  61  63 CALM      29.97R
AUGUSTA DANIEL CLEAR     87  54  32 CALM      29.99R
THOMSON        CLEAR     77  67  72 CALM      30.03R
WASHINGTON     FAIR      81  64  57 CALM      29.99R
SYLVANIA       CLEAR     78  67  68 SE3       30.01R
STATESBORO     CLEAR     78  65  64 SE3       30.00R
SAVANNAH       PTCLDY    78  68  71 S5        30.01R


...SOUTHERN NORTH CAROLINA...

CITY           SKY/WX    TMP DP  RH WIND       PRES   REMARKS
CHARLOTTE      PTCLDY    81  66  60 W3        30.01R
MONROE         CLEAR     82  66  58 CALM      29.99R
WADESBORO      CLEAR     79  70  72 SE3       29.98R
ROCKINGHAM     CLEAR     85  65  50 S3        29.99R
RUTHERFORDTON  CLEAR     79  68  69 CALM      30.04R
ASHEVILLE      CLEAR     76  65  68 CALM      30.11R

$$


USA.gov is the U.S. government's official web portal to all federal, state and local government web resources and services.